Simultaneous Nadir Overpasses (SNOs) Predictions

Prediction of SNOs between GOES-16 and NOAA-19 Satellite Orbit:

Table of predicted SNOs for the next 14.0 days since TLE Epoch: 7/31/2020
Index Date Time (GOES-16) GOES-16 Lat,Lon NOAA-19 Lat,Lon Distance(km) Time Diff (sec)
1 08/01/2020 11:16:07 -0.05, -75.19 0.61, -78.14 335.44 80
2 08/02/2020 11:04:25 -0.06, -75.20 -0.05, -75.28 9.47 80
3 08/03/2020 10:50:04 -0.06, -75.20 -0.71, -72.42 316.84 80
4 08/05/2020 23:13:41 0.07, -75.20 -0.47, -77.38 249.36 80
5 08/06/2020 22:59:20 0.07, -75.21 0.20, -74.52 77.88 80
6 08/07/2020 22:47:39 0.08, -75.22 0.87, -71.67 405.17 80
7 08/09/2020 11:23:00 -0.08, -75.26 0.90, -79.49 483.06 80
8 08/10/2020 11:11:18 -0.08, -75.27 0.24, -76.64 155.45 80
9 08/11/2020 10:56:57 -0.08, -75.29 -0.43, -73.78 172.26 80
10 08/13/2020 23:20:34 0.08, -75.31 -0.74, -78.73 390.77 80
